| time (UTC) | temp F | wind direction | speed MPH | gust MPH | rain 1hr in | rain 24hr in | rain mn in | humidity % | barometer mb |
| 20260503203037 | 67 | 189 | 5.0 | 11.0 | 0.00 | 0.00 | 0.00 | 55 | 1020.3 |
| 20260503202535 | 67 | 222 | 2.0 | 8.0 | 0.00 | 0.00 | 0.00 | 55 | 1020.3 |
| 20260503202033 | 67 | 233 | 7.0 | 10.0 | 0.00 | 0.00 | 0.00 | 56 | 1020.6 |
| 20260503201531 | 68 | 222 | 10.0 | 11.0 | 0.00 | 0.00 | 0.00 | 56 | 1020.5 |
| 20260503201028 | 67 | 204 | 4.0 | 8.0 | 0.00 | 0.00 | 0.00 | 58 | 1020.7 |
| 20260503200524 | 67 | 180 | 5.0 | 12.0 | 0.00 | 0.00 | 0.00 | 56 | 1020.6 |
| 20260503200021 | 67 | 194 | 9.0 | 9.0 | 0.00 | 0.00 | 0.00 | 58 | 1020.7 |
| 20260503195518 | 68 | 202 | 5.0 | 9.0 | 0.00 | 0.00 | 0.00 | 51 | 1020.8 |
| 20260503195015 | 68 | 184 | 6.0 | 12.0 | 0.00 | 0.00 | 0.00 | 57 | 1020.8 |
| 20260503194512 | 68 | 238 | 4.0 | 8.0 | 0.00 | 0.00 | 0.00 | 58 | 1020.9 |
| 20260503194012 | 68 | 199 | 2.0 | 9.0 | 0.00 | 0.00 | 0.00 | 54 | 1021.0 |
| 20260503193508 | 68 | 207 | 2.0 | 6.0 | 0.00 | 0.00 | 0.00 | 51 | 1020.9 |
| 20260503193004 | 67 | 189 | 8.0 | 9.0 | 0.00 | 0.00 | 0.00 | 54 | 1021.1 |
| 20260503192500 | 67 | 175 | 6.0 | 10.0 | 0.00 | 0.00 | 0.00 | 53 | 1021.0 |
| 20260503191955 | 67 | 190 | 4.0 | 9.0 | 0.00 | 0.00 | 0.00 | 57 | 1021.4 |
| 20260503191453 | 68 | 205 | 6.0 | 6.0 | 0.00 | 0.00 | 0.00 | 57 | 1021.4 |
| 20260503190949 | 67 | 185 | 7.0 | 11.0 | 0.00 | 0.00 | 0.00 | 55 | 1021.4 |
| 20260503190447 | 67 | 212 | 6.0 | 11.0 | 0.00 | 0.00 | 0.00 | 59 | 1021.5 |
| 20260503185944 | 67 | 203 | 10.0 | 10.0 | 0.00 | 0.00 | 0.00 | 57 | 1021.8 |
| 20260503185440 | 67 | 192 | 9.0 | 10.0 | 0.00 | 0.00 | 0.00 | 56 | 1021.7 |
| 20260503184940 | 67 | 204 | 6.0 | 10.0 | 0.00 | 0.00 | 0.00 | 56 | 1021.7 |
| 20260503184436 | 67 | 203 | 3.0 | 6.0 | 0.00 | 0.00 | 0.00 | 58 | 1021.6 |
| 20260503183933 | 66 | 219 | 1.0 | 11.0 | 0.00 | 0.00 | 0.00 | 59 | 1021.8 |
| 20260503183429 | 67 | 201 | 9.0 | 13.0 | 0.00 | 0.00 | 0.00 | 54 | 1021.9 |
| 20260503182926 | 66 | 197 | 6.0 | 10.0 | 0.00 | 0.00 | 0.00 | 55 | 1021.9 |
| 20260503182425 | 67 | 175 | 3.0 | 10.0 | 0.00 | 0.00 | 0.00 | 54 | 1021.9 |
| 20260503181922 | 68 | 189 | 3.0 | 12.0 | 0.00 | 0.00 | 0.00 | 59 | 1022.0 |
| 20260503181419 | 68 | 201 | 5.0 | 13.0 | 0.00 | 0.00 | 0.00 | 55 | 1022.1 |
| 20260503180915 | 68 | 202 | 5.0 | 8.0 | 0.00 | 0.00 | 0.00 | 55 | 1022.2 |
| 20260503180414 | 68 | 233 | 3.0 | 7.0 | 0.00 | 0.00 | 0.00 | 61 | 1022.0 |
| 20260503175910 | 69 | 194 | 7.0 | 8.0 | 0.00 | 0.00 | 0.00 | 53 | 1022.1 |
| 20260503175409 | 69 | 162 | 2.0 | 2.0 | 0.00 | 0.00 | 0.00 | 53 | 1022.0 |
| 20260503174904 | 68 | 231 | 2.0 | 3.0 | 0.00 | 0.00 | 0.00 | 56 | 1022.1 |
| 20260503174403 | 68 | 149 | 0.0 | 3.0 | 0.00 | 0.00 | 0.00 | 56 | 1021.9 |
| 20260503173902 | 68 | 197 | 6.0 | 6.0 | 0.00 | 0.00 | 0.00 | 53 | 1021.9 |
| 20260503173359 | 69 | 210 | 5.0 | 9.0 | 0.00 | 0.00 | 0.00 | 53 | 1022.2 |
| 20260503172856 | 68 | 223 | 3.0 | 3.0 | 0.00 | 0.00 | 0.00 | 58 | 1022.3 |
| 20260503172353 | 68 | 162 | 2.0 | 4.0 | 0.00 | 0.00 | 0.00 | 60 | 1022.4 |
| 20260503171849 | 69 | 196 | 0.0 | 4.0 | 0.00 | 0.00 | 0.00 | 55 | 1022.1 |
| 20260503171346 | 68 | 309 | 0.0 | 7.0 | 0.00 | 0.00 | 0.00 | 56 | 1022.3 |
| 20260503170844 | 68 | 158 | 2.0 | 2.0 | 0.00 | 0.00 | 0.00 | 53 | 1022.3 |
| 20260503170340 | 68 | 201 | 0.0 | 7.0 | 0.00 | 0.00 | 0.00 | 57 | 1022.4 |
| 20260503150732 | 67 | 15 | 1.0 | 5.0 | 0.00 | 0.00 | 0.00 | 49 | 1022.5 |
| 20260503150228 | 66 | 36 | 6.0 | 6.0 | 0.00 | 0.00 | 0.00 | 53 | 1022.6 |
| 20260503140153 | 62 | 12 | 5.0 | 6.0 | 0.00 | 0.00 | 0.00 | 61 | 1022.3 |
| 20260503131122 | 58 | 13 | 0.0 | 6.0 | 0.00 | 0.00 | 0.00 | 86 | 1022.1 |
| 20260503130620 | 57 | 18 | 6.0 | 6.0 | 0.00 | 0.00 | 0.00 | 88 | 1022.1 |
| 20260503130118 | 57 | 25 | 1.0 | 6.0 | 0.00 | 0.00 | 0.00 | 89 | 1022.0 |
| 20260503110510 | 48 | 349 | 1.0 | 2.0 | 0.00 | 0.00 | 0.00 | 99 | 1020.9 |
| 20260503090402 | 49 | 331 | 2.0 | 2.0 | 0.00 | 0.00 | 0.00 | 99 | 1019.4 |
| 20260503081329 | 49 | 350 | 2.0 | 4.0 | 0.00 | 0.00 | 0.00 | 98 | 1019.0 |
| 20260503080826 | 49 | 333 | 1.0 | 2.0 | 0.00 | 0.00 | 0.00 | 98 | 1019.3 |
| 20260503080323 | 49 | 323 | 1.0 | 2.0 | 0.00 | 0.00 | 0.00 | 98 | 1019.2 |
| 20260503072759 | 50 | 12 | 1.0 | 2.0 | 0.00 | 0.00 | 0.00 | 98 | 1018.7 |
| 20260503072256 | 50 | 0 | 1.0 | 3.0 | 0.00 | 0.00 | 0.00 | 98 | 1018.7 |
| 20260503071752 | 50 | 11 | 0.0 | 4.0 | 0.00 | 0.00 | 0.00 | 98 | 1018.6 |
| 20260503071249 | 50 | 337 | 2.0 | 3.0 | 0.00 | 0.00 | 0.00 | 98 | 1018.8 |
| 20260503070745 | 51 | 346 | 1.0 | 3.0 | 0.00 | 0.00 | 0.00 | 98 | 1018.7 |
| 20260503070244 | 51 | 359 | 2.0 | 2.0 | 0.00 | 0.00 | 0.00 | 98 | 1018.8 |
| 20260503060209 | 51 | 17 | 0.0 | 2.0 | 0.00 | 0.00 | 0.00 | 97 | 1018.3 |
| 20260503054655 | 52 | 335 | 2.0 | 3.0 | 0.00 | 0.00 | 0.00 | 97 | 1018.3 |
| 20260503054153 | 52 | 351 | 2.0 | 2.0 | 0.00 | 0.00 | 0.00 | 97 | 1018.4 |
| 20260503053651 | 52 | 3 | 0.0 | 3.0 | 0.00 | 0.00 | 0.00 | 97 | 1018.4 |
| 20260503053149 | 52 | 21 | 0.0 | 4.0 | 0.00 | 0.00 | 0.00 | 97 | 1018.5 |
| 20260503052645 | 52 | 4 | 1.0 | 5.0 | 0.00 | 0.00 | 0.00 | 97 | 1018.4 |
| 20260503052141 | 52 | 319 | 2.0 | 4.0 | 0.00 | 0.00 | 0.00 | 97 | 1018.3 |
| 20260503051637 | 53 | 354 | 3.0 | 5.0 | 0.00 | 0.00 | 0.00 | 97 | 1018.2 |
| 20260503051135 | 53 | 48 | 4.0 | 6.0 | 0.00 | 0.00 | 0.00 | 97 | 1018.3 |
| 20260503050631 | 53 | 344 | 2.0 | 3.0 | 0.00 | 0.00 | 0.00 | 97 | 1018.4 |
| 20260503050128 | 53 | 323 | 3.0 | 3.0 | 0.00 | 0.00 | 0.00 | 97 | 1018.4 |
| 20260503045626 | 53 | 11 | 2.0 | 3.0 | 0.00 | 0.00 | 0.00 | 97 | 1018.3 |
| 20260503045122 | 53 | 8 | 4.0 | 7.0 | 0.00 | 0.00 | 0.00 | 97 | 1018.1 |
| 20260503044619 | 53 | 65 | 2.0 | 6.0 | 0.00 | 0.00 | 0.00 | 97 | 1018.0 |
| 20260503044117 | 53 | 322 | 2.0 | 3.0 | 0.00 | 0.00 | 0.00 | 97 | 1017.9 |
| 20260503043613 | 53 | 3 | 2.0 | 6.0 | 0.00 | 0.00 | 0.00 | 97 | 1017.9 |
| 20260503043110 | 53 | 305 | 1.0 | 3.0 | 0.00 | 0.00 | 0.00 | 97 | 1018.1 |
| 20260503042607 | 53 | 18 | 3.0 | 4.0 | 0.00 | 0.00 | 0.00 | 97 | 1018.0 |
| 20260503042103 | 54 | 334 | 2.0 | 3.0 | 0.00 | 0.00 | 0.00 | 97 | 1018.0 |
| 20260503041559 | 54 | 308 | 0.0 | 3.0 | 0.00 | 0.00 | 0.00 | 97 | 1017.9 |
| 20260503041057 | 54 | 20 | 4.0 | 5.0 | 0.00 | 0.00 | 0.00 | 97 | 1017.9 |
| 20260503040554 | 54 | 60 | 3.0 | 7.0 | 0.00 | 0.00 | 0.00 | 97 | 1017.8 |
| 20260503040051 | 54 | 4 | 2.0 | 5.0 | 0.00 | 1.09 | 1.09 | 97 | 1017.6 |
| 20260503035548 | 54 | 19 | 2.0 | 5.0 | 0.00 | 1.09 | 1.09 | 97 | 1017.6 |
| 20260503035046 | 54 | 357 | 2.0 | 6.0 | 0.00 | 1.09 | 1.09 | 97 | 1017.5 |
| 20260503034543 | 54 | 33 | 4.0 | 6.0 | 0.00 | 1.09 | 1.09 | 97 | 1017.5 |
| 20260503034040 | 54 | 35 | 4.0 | 5.0 | 0.00 | 1.09 | 1.09 | 97 | 1017.4 |
| 20260503033537 | 54 | 349 | 2.0 | 4.0 | 0.00 | 1.09 | 1.09 | 97 | 1017.4 |
| 20260503033035 | 55 | 324 | 1.0 | 4.0 | 0.00 | 1.09 | 1.09 | 97 | 1017.1 |
| 20260503032533 | 55 | 16 | 1.0 | 2.0 | 0.00 | 1.09 | 1.09 | 97 | 1017.3 |
| 20260503032031 | 55 | 51 | 4.0 | 4.0 | 0.00 | 1.09 | 1.09 | 97 | 1017.1 |
| 20260503031528 | 55 | 43 | 3.0 | 6.0 | 0.00 | 1.09 | 1.09 | 97 | 1017.1 |
| 20260503031025 | 55 | 354 | 0.0 | 2.0 | 0.00 | 1.09 | 1.09 | 97 | 1016.8 |
| 20260503030521 | 55 | 336 | 2.0 | 2.0 | 0.00 | 1.09 | 1.09 | 97 | 1016.8 |
| 20260503030019 | 55 | 37 | 1.0 | 3.0 | 0.00 | 1.09 | 1.09 | 97 | 1016.8 |
| 20260503025515 | 55 | 339 | 2.0 | 4.0 | 0.00 | 1.09 | 1.09 | 97 | 1016.9 |
| 20260503025013 | 55 | 327 | 3.0 | 5.0 | 0.00 | 1.09 | 1.09 | 97 | 1016.8 |
| 20260503024509 | 55 | 26 | 3.0 | 4.0 | 0.00 | 1.09 | 1.09 | 97 | 1016.6 |
| 20260503024007 | 55 | 15 | 2.0 | 3.0 | 0.00 | 1.09 | 1.09 | 97 | 1016.6 |
| 20260503023503 | 55 | 26 | 4.0 | 5.0 | 0.00 | 1.09 | 1.09 | 97 | 1016.7 |
| 20260503023000 | 55 | 348 | 1.0 | 3.0 | 0.00 | 1.09 | 1.09 | 97 | 1016.5 |
| 20260503022455 | 55 | 354 | 2.0 | 2.0 | 0.00 | 1.09 | 1.09 | 97 | 1016.4 |
| 20260503021951 | 55 | 344 | 2.0 | 4.0 | 0.00 | 1.09 | 1.09 | 97 | 1016.2 |
| 20260503021448 | 55 | 7 | 2.0 | 3.0 | 0.00 | 1.09 | 1.09 | 97 | 1016.0 |
| 20260503020945 | 55 | 5 | 2.0 | 3.0 | 0.00 | 1.09 | 1.09 | 97 | 1016.2 |
| 20260503020443 | 55 | 10 | 2.0 | 3.0 | 0.00 | 1.09 | 1.09 | 97 | 1016.2 |
| 20260503015939 | 55 | 331 | 3.0 | 3.0 | 0.00 | 1.09 | 1.09 | 97 | 1015.9 |
| 20260503015436 | 55 | 359 | 3.0 | 4.0 | 0.00 | 1.09 | 1.09 | 97 | 1015.8 |
| 20260503014932 | 55 | 357 | 2.0 | 4.0 | 0.00 | 1.09 | 1.09 | 97 | 1015.8 |
| 20260503014429 | 55 | 26 | 4.0 | 4.0 | 0.00 | 1.09 | 1.09 | 97 | 1015.7 |
| 20260503013927 | 55 | 358 | 2.0 | 4.0 | 0.00 | 1.09 | 1.09 | 97 | 1015.4 |
| 20260503013424 | 55 | 7 | 3.0 | 6.0 | 0.00 | 1.09 | 1.09 | 97 | 1015.7 |
| 20260503012921 | 55 | 45 | 3.0 | 5.0 | 0.00 | 1.09 | 1.09 | 97 | 1015.6 |
| 20260503012419 | 55 | 2 | 2.0 | 3.0 | 0.00 | 1.09 | 1.09 | 97 | 1015.6 |
| 20260503011915 | 55 | 350 | 2.0 | 3.0 | 0.00 | 1.09 | 1.09 | 97 | 1015.8 |
| 20260503011412 | 55 | 336 | 3.0 | 4.0 | 0.00 | 1.09 | 1.09 | 97 | 1015.8 |
| 20260503010909 | 55 | 348 | 2.0 | 3.0 | 0.00 | 1.09 | 1.09 | 97 | 1015.8 |
| 20260503010406 | 56 | 357 | 4.0 | 4.0 | 0.00 | 1.09 | 1.09 | 97 | 1015.6 |
| 20260503005902 | 56 | 12 | 4.0 | 5.0 | 0.00 | 1.09 | 1.09 | 97 | 1015.7 |
| 20260503005400 | 56 | 0 | 2.0 | 3.0 | 0.00 | 1.09 | 1.09 | 97 | 1015.6 |
| 20260503004856 | 56 | 348 | 2.0 | 3.0 | 0.00 | 1.09 | 1.09 | 97 | 1015.3 |
| 20260503004354 | 56 | 17 | 3.0 | 6.0 | 0.00 | 1.09 | 1.09 | 97 | 1015.6 |
| 20260503003851 | 56 | 33 | 3.0 | 3.0 | 0.00 | 1.09 | 1.09 | 97 | 1015.2 |
| 20260503003348 | 56 | 57 | 1.0 | 2.0 | 0.00 | 1.09 | 1.09 | 97 | 1015.1 |
| 20260503002844 | 56 | 350 | 3.0 | 4.0 | 0.00 | 1.09 | 1.09 | 97 | 1015.0 |
| 20260503002342 | 56 | 50 | 0.0 | 4.0 | 0.00 | 1.09 | 1.09 | 97 | 1014.8 |
| 20260503001838 | 56 | 19 | 4.0 | 5.0 | 0.00 | 1.09 | 1.09 | 97 | 1014.8 |
| 20260503001335 | 56 | 21 | 4.0 | 5.0 | 0.00 | 1.09 | 1.09 | 97 | 1014.8 |
| 20260503000832 | 56 | 10 | 2.0 | 4.0 | 0.00 | 1.09 | 1.09 | 97 | 1014.9 |
| 20260503000330 | 56 | 0 | 3.0 | 4.0 | 0.00 | 1.09 | 1.09 | 97 | 1014.9 |
| 20260502235827 | 56 | 2 | 1.0 | 3.0 | 0.02 | 1.09 | 1.09 | 97 | 1014.6 |
| 20260502235324 | 56 | 3 | 2.0 | 4.0 | 0.02 | 1.09 | 1.09 | 97 | 1014.6 |
| 20260502234820 | 56 | 0 | 2.0 | 4.0 | 0.02 | 1.08 | 1.08 | 97 | 1014.6 |
| 20260502234317 | 57 | 10 | 2.0 | 4.0 | 0.05 | 1.08 | 1.08 | 97 | 1014.5 |
| 20260502233814 | 57 | 26 | 4.0 | 4.0 | 0.02 | 1.08 | 1.08 | 97 | 1014.5 |
| 20260502233310 | 57 | 0 | 2.0 | 6.0 | 0.02 | 1.07 | 1.07 | 97 | 1014.4 |
| 20260502232807 | 57 | 336 | 2.0 | 3.0 | 0.02 | 1.07 | 1.07 | 97 | 1014.1 |
| 20260502232305 | 57 | 25 | 2.0 | 4.0 | 0.00 | 1.07 | 1.07 | 97 | 1014.2 |
| 20260502231800 | 57 | 28 | 2.0 | 3.0 | 0.00 | 1.07 | 1.07 | 97 | 1013.9 |
| 20260502231258 | 57 | 354 | 3.0 | 8.0 | 0.00 | 1.07 | 1.07 | 97 | 1013.7 |
| 20260502230756 | 57 | 12 | 3.0 | 5.0 | 0.00 | 1.07 | 1.07 | 97 | 1014.0 |
| 20260502230254 | 57 | 22 | 3.0 | 4.0 | 0.00 | 1.07 | 1.07 | 97 | 1013.8 |
| 20260502225750 | 57 | 23 | 2.0 | 3.0 | 0.00 | 1.07 | 1.07 | 97 | 1013.9 |
| 20260502225247 | 57 | 52 | 5.0 | 5.0 | 0.00 | 1.07 | 1.07 | 97 | 1013.8 |
| 20260502224743 | 57 | 8 | 3.0 | 6.0 | 0.02 | 1.07 | 1.07 | 97 | 1013.9 |
| 20260502224240 | 57 | 1 | 3.0 | 7.0 | 0.02 | 1.07 | 1.07 | 97 | 1014.0 |
| 20260502223738 | 57 | 38 | 5.0 | 6.0 | 0.00 | 1.07 | 1.07 | 97 | 1014.0 |
| 20260502223236 | 57 | 344 | 0.0 | 6.0 | 0.00 | 1.07 | 1.07 | 97 | 1014.2 |
| 20260502222733 | 57 | 0 | 4.0 | 9.0 | 0.00 | 1.07 | 1.07 | 96 | 1014.1 |
| 20260502222230 | 57 | 340 | 3.0 | 7.0 | 0.00 | 1.07 | 1.07 | 97 | 1014.0 |
| 20260502221725 | 57 | 56 | 3.0 | 7.0 | 0.02 | 1.07 | 1.07 | 97 | 1013.8 |
| 20260502221223 | 57 | 42 | 8.0 | 12.0 | 0.02 | 1.07 | 1.07 | 97 | 1014.0 |
| 20260502220719 | 57 | 52 | 3.0 | 6.0 | 0.00 | 1.06 | 1.06 | 97 | 1013.9 |
| 20260502220215 | 57 | 124 | 0.0 | 5.0 | 0.00 | 1.06 | 1.06 | 97 | 1013.8 |
| 20260502215712 | 57 | 67 | 3.0 | 5.0 | 0.00 | 1.06 | 1.06 | 97 | 1013.6 |
| 20260502215209 | 57 | 14 | 3.0 | 4.0 | 0.02 | 1.06 | 1.06 | 97 | 1013.3 |
| 20260502214707 | 57 | 352 | 3.0 | 3.0 | 0.02 | 1.06 | 1.06 | 97 | 1013.2 |
| 20260502214204 | 57 | 34 | 6.0 | 8.0 | 0.00 | 1.06 | 1.06 | 97 | 1013.5 |
| 20260502213701 | 57 | 16 | 2.0 | 5.0 | 0.00 | 1.06 | 1.06 | 97 | 1013.3 |
| 20260502213158 | 57 | 55 | 0.0 | 6.0 | 0.00 | 1.06 | 1.06 | 97 | 1013.1 |
| 20260502212656 | 57 | 24 | 2.0 | 6.0 | 0.02 | 1.06 | 1.06 | 96 | 1013.0 |
| 20260502212154 | 57 | 6 | 2.0 | 8.0 | 0.02 | 1.06 | 1.06 | 96 | 1012.8 |
| 20260502211650 | 57 | 350 | 5.0 | 6.0 | 0.00 | 1.05 | 1.05 | 97 | 1012.7 |
| 20260502211147 | 57 | 0 | 3.0 | 7.0 | 0.00 | 1.05 | 1.05 | 97 | 1012.7 |
| 20260502210644 | 57 | 12 | 3.0 | 9.0 | 0.00 | 1.05 | 1.05 | 96 | 1012.9 |
| 20260502210141 | 57 | 9 | 4.0 | 5.0 | 0.00 | 1.05 | 1.05 | 96 | 1012.9 |
| 20260502205638 | 57 | 356 | 3.0 | 6.0 | 0.02 | 1.05 | 1.05 | 96 | 1012.8 |
| 20260502205135 | 58 | 337 | 3.0 | 6.0 | 0.02 | 1.05 | 1.05 | 96 | 1012.7 |
| 20260502204632 | 58 | 34 | 5.0 | 8.0 | 0.00 | 1.05 | 1.05 | 96 | 1012.5 |
| 20260502204129 | 58 | 11 | 2.0 | 6.0 | 0.00 | 1.05 | 1.05 | 97 | 1012.6 |
| 20260502203626 | 58 | 18 | 4.0 | 6.0 | 0.05 | 1.05 | 1.05 | 97 | 1012.5 |